Location: Unspecified
(41.9031°N, 12.4386°E)
Time: 17:09:22
(UTC+02:00)

ISS - Pass Details

Date: 02 June 2020
Orbit: 417 x 420 km, 51.6° (Epoch: 26 May)

Event Time Altitude Azimuth Distance (km) Brightness Sun altitude
Rises 22:25:02 0° 293° (WNW) 2,363 1.2 -15.5°
Reaches altitude 10° 22:27:29 10° 276° (W) 1,496 -0.3 -15.8°
Maximum altitude 22:30:01 20° 227° (SW) 1,024 -1.9 -16.1°
Enters shadow 22:30:53 18° 205° (SSW) 1,086 -1.9 -16.2°
